When you browse on this site, cookies collect data to enhance your experience and personalize the content and advertising you see.
Visit our Privacy Policy to learn more. By continuing to use the site, you agree to this use of cookies and data.
  • Em Portugal
  • Lista de países
  • Para 7 dias
  • Temperatura da água
  • Mapa do tempo
  • Widgets de tempo
  • user-avatar
    Iniciar Sessão

    Previsão horária em Vanadzor

    Hoje, 16 Outubro, Quarta-feira

    Tempo Temperatura Precipitação Vento Pressão Humidade
    00:00 +12°C° 0 mm 1 m/s 639 mmHg 30%
    01:00 +12°C° 0 mm 1 m/s 639 mmHg 30%
    02:00 +12°C° 0 mm 1 m/s 639 mmHg 30%
    03:00 +12°C° 0 mm 1 m/s 639 mmHg 30%
    04:00 +11°C° 0 mm 1 m/s 639 mmHg 30%
    05:00 +11°C° 0 mm 1 m/s 639 mmHg 31%
    06:00 +11°C° 0 mm 1 m/s 639 mmHg 31%
    07:00 +13°C° 0 mm 1 m/s 639 mmHg 29%
    08:00 +16°C° 0 mm 1 m/s 640 mmHg 27%
    09:00 +19°C° 0 mm 1 m/s 641 mmHg 25%
    10:00 +21°C° 0 mm 1 m/s 641 mmHg 23%
    11:00 +22°C° 0 mm 1 m/s 641 mmHg 20%
    12:00 +23°C° 0 mm 1 m/s 642 mmHg 18%
    13:00 +23°C° 0 mm 1 m/s 641 mmHg 18%
    14:00 +23°C° 0 mm 2 m/s 641 mmHg 19%
    15:00 +23°C° 0 mm 2 m/s 641 mmHg 19%
    16:00 +21°C° 0 mm 1 m/s 640 mmHg 27%
    17:00 +18°C° 0 mm 1 m/s 639 mmHg 35%
    18:00 +13°C° 0 mm 0 m/s 638 mmHg 43%
    19:00 +14°C° 0 mm 1 m/s 638 mmHg 44%
    20:00 +13°C° 0 mm 1 m/s 639 mmHg 45%
    21:00 +13°C° 0 mm 1 m/s 639 mmHg 47%
    22:00 +12°C° 0 mm 1 m/s 639 mmHg 47%
    23:00 +12°C° 0 mm 1 m/s 639 mmHg 48%

    Amanhã, 17 Outubro, Quinta-feira

    Tempo Temperatura Precipitação Vento Pressão Humidade
    00:00 +12°C° 0 mm 1 m/s 639 mmHg 48%
    01:00 +12°C° 0 mm 1 m/s 639 mmHg 48%
    02:00 +11°C° 0 mm 1 m/s 639 mmHg 49%
    03:00 +11°C° 0 mm 1 m/s 639 mmHg 49%
    04:00 +11°C° 0 mm 1 m/s 639 mmHg 48%
    05:00 +10°C° 0 mm 1 m/s 639 mmHg 47%
    06:00 +10°C° 0 mm 1 m/s 639 mmHg 46%
    07:00 +13°C° 0 mm 1 m/s 640 mmHg 40%
    08:00 +14°C° 0 mm 0 m/s 640 mmHg 35%
    09:00 +17°C° 0 mm 0 m/s 641 mmHg 30%
    10:00 +20°C° 0 mm 1 m/s 642 mmHg 28%
    11:00 +21°C° 0 mm 1 m/s 642 mmHg 26%
    12:00 +22°C° 0 mm 1 m/s 642 mmHg 24%
    13:00 +22°C° 0 mm 1 m/s 641 mmHg 26%
    14:00 +22°C° 0 mm 1 m/s 641 mmHg 28%
    15:00 +22°C° 0 mm 1 m/s 641 mmHg 30%
    16:00 +20°C° 0 mm 1 m/s 640 mmHg 38%
    17:00 +16°C° 0 mm 1 m/s 639 mmHg 47%
    18:00 +14°C° 0 mm 1 m/s 639 mmHg 55%
    19:00 +13°C° 0 mm 0 m/s 639 mmHg 56%
    20:00 +12°C° 0 mm 0 m/s 639 mmHg 56%
    21:00 +11°C° 0 mm 0 m/s 639 mmHg 57%
    22:00 +11°C° 0 mm 0 m/s 638 mmHg 56%
    23:00 +11°C° 0 mm 0 m/s 638 mmHg 55%

    Depois de amanhã, 18 Outubro, Sexta-feira

    Tempo Temperatura Precipitação Vento Pressão Humidade
    00:00 +11°C° 0 mm 0 m/s 638 mmHg 54%
    01:00 +12°C° 0 mm 1 m/s 638 mmHg 51%
    02:00 +12°C° 0 mm 1 m/s 638 mmHg 48%
    03:00 +12°C° 0 mm 1 m/s 638 mmHg 44%
    04:00 +12°C° 0 mm 1 m/s 638 mmHg 43%
    05:00 +12°C° 0 mm 1 m/s 638 mmHg 42%
    06:00 +12°C° 0 mm 1 m/s 638 mmHg 41%
    07:00 +14°C° 0 mm 1 m/s 639 mmHg 38%
    08:00 +16°C° 0 mm 1 m/s 639 mmHg 36%
    09:00 +20°C° 0 mm 1 m/s 640 mmHg 33%
    10:00 +21°C° 0 mm 1 m/s 640 mmHg 32%
    11:00 +21°C° 0 mm 2 m/s 640 mmHg 31%
    12:00 +23°C° 0 mm 2 m/s 640 mmHg 30%
    13:00 +23°C° 0 mm 2 m/s 640 mmHg 31%
    14:00 +23°C° 0 mm 2 m/s 639 mmHg 32%
    15:00 +23°C° 0 mm 2 m/s 639 mmHg 32%
    16:00 +21°C° 0 mm 1 m/s 638 mmHg 41%
    17:00 +19°C° 0 mm 1 m/s 638 mmHg 49%
    18:00 +15°C° 0 mm 0 m/s 637 mmHg 57%
    19:00 +14°C° 0.1 mm 0 m/s 637 mmHg 59%
    20:00 +13°C° 0.1 mm 0 m/s 637 mmHg 60%
    21:00 +13°C° 0.1 mm 0 m/s 637 mmHg 62%
    22:00 +13°C° 0.1 mm 0 m/s 637 mmHg 64%
    23:00 +13°C° 0.1 mm 1 m/s 637 mmHg 65%

    19 Outubro, Sábado

    Tempo Temperatura Precipitação Vento Pressão Humidade
    00:00 +13°C° 0.1 mm 1 m/s 637 mmHg 66%
    01:00 +13°C° 0 mm 1 m/s 637 mmHg 66%
    02:00 +12°C° 0 mm 1 m/s 637 mmHg 65%
    03:00 +12°C° 0 mm 1 m/s 636 mmHg 64%
    04:00 +12°C° 0 mm 1 m/s 637 mmHg 63%
    05:00 +12°C° 0 mm 1 m/s 637 mmHg 62%
    06:00 +12°C° 0 mm 1 m/s 637 mmHg 61%
    07:00 +14°C° 0 mm 1 m/s 637 mmHg 56%
    08:00 +15°C° 0 mm 0 m/s 638 mmHg 50%
    09:00 +17°C° 0 mm 0 m/s 639 mmHg 45%
    10:00 +18°C° 0 mm 0 m/s 639 mmHg 43%
    11:00 +21°C° 0 mm 1 m/s 639 mmHg 40%
    12:00 +22°C° 0 mm 1 m/s 639 mmHg 38%
    13:00 +21°C° 0.1 mm 1 m/s 639 mmHg 41%
    14:00 +21°C° 0.1 mm 1 m/s 638 mmHg 43%
    15:00 +21°C° 0.1 mm 1 m/s 638 mmHg 45%
    16:00 +19°C° 0.3 mm 1 m/s 638 mmHg 54%
    17:00 +16°C° 0.3 mm 1 m/s 638 mmHg 63%
    18:00 +15°C° 0.3 mm 1 m/s 637 mmHg 72%
    19:00 +14°C° 0.2 mm 1 m/s 638 mmHg 74%
    20:00 +14°C° 0.2 mm 1 m/s 638 mmHg 76%
    21:00 +12°C° 0.2 mm 0 m/s 638 mmHg 79%
    22:00 +12°C° 0.1 mm 0 m/s 638 mmHg 80%
    23:00 +12°C° 0.1 mm 0 m/s 638 mmHg 82%

    20 Outubro, Domingo

    Tempo Temperatura Precipitação Vento Pressão Humidade
    00:00 +11°C° 0.1 mm 0 m/s 638 mmHg 84%
    01:00 +11°C° 0.3 mm 0 m/s 638 mmHg 84%
    02:00 +11°C° 0.3 mm 0 m/s 638 mmHg 85%
    03:00 +11°C° 0.3 mm 0 m/s 638 mmHg 86%
    04:00 +11°C° 0.5 mm 0 m/s 638 mmHg 87%
    05:00 +11°C° 0.5 mm 0 m/s 638 mmHg 88%
    06:00 +11°C° 0.5 mm 0 m/s 638 mmHg 89%
    07:00 +12°C° 0.1 mm 1 m/s 638 mmHg 85%
    08:00 +13°C° 0.1 mm 1 m/s 638 mmHg 82%
    09:00 +14°C° 0.1 mm 1 m/s 638 mmHg 78%
    10:00 +15°C° 0.2 mm 1 m/s 638 mmHg 74%
    11:00 +16°C° 0.2 mm 2 m/s 639 mmHg 70%
    12:00 +17°C° 0.2 mm 2 m/s 639 mmHg 66%
    13:00 +16°C° 0.5 mm 2 m/s 638 mmHg 67%
    14:00 +16°C° 0.5 mm 2 m/s 638 mmHg 69%
    15:00 +16°C° 0.5 mm 2 m/s 638 mmHg 70%
    16:00 +15°C° 0.3 mm 2 m/s 638 mmHg 76%
    17:00 +14°C° 0.3 mm 2 m/s 638 mmHg 81%
    18:00 +13°C° 0.3 mm 2 m/s 637 mmHg 87%
    19:00 +12°C° 0.1 mm 2 m/s 637 mmHg 90%
    20:00 +12°C° 0.1 mm 1 m/s 638 mmHg 92%
    21:00 +11°C° 0.1 mm 1 m/s 638 mmHg 95%
    22:00 +11°C° 0 mm 1 m/s 638 mmHg 95%
    23:00 +11°C° 0 mm 1 m/s 638 mmHg 95%

    21 Outubro, Segunda-feira

    Tempo Temperatura Precipitação Vento Pressão Humidade
    00:00 +11°C° 0 mm 1 m/s 638 mmHg 95%
    01:00 +10°C° 0 mm 1 m/s 638 mmHg 95%
    02:00 +10°C° 0 mm 1 m/s 638 mmHg 95%
    03:00 +10°C° 0 mm 1 m/s 637 mmHg 95%
    04:00 +10°C° 0 mm 1 m/s 637 mmHg 94%
    05:00 +10°C° 0 mm 1 m/s 637 mmHg 93%
    06:00 +10°C° 0 mm 1 m/s 638 mmHg 93%
    07:00 +11°C° 0 mm 1 m/s 638 mmHg 89%
    08:00 +11°C° 0 mm 1 m/s 638 mmHg 86%
    09:00 +12°C° 0 mm 1 m/s 638 mmHg 83%
    10:00 +13°C° 0 mm 1 m/s 638 mmHg 79%
    11:00 +13°C° 0 mm 2 m/s 638 mmHg 76%
    12:00 +14°C° 0 mm 2 m/s 639 mmHg 73%
    13:00 +14°C° 0.1 mm 2 m/s 638 mmHg 75%
    14:00 +14°C° 0.1 mm 2 m/s 638 mmHg 76%
    15:00 +14°C° 0.1 mm 2 m/s 638 mmHg 77%
    16:00 +13°C° 0.1 mm 2 m/s 637 mmHg 82%
    17:00 +12°C° 0.1 mm 2 m/s 637 mmHg 88%
    18:00 +11°C° 0.1 mm 1 m/s 637 mmHg 93%
    19:00 +11°C° 0 mm 1 m/s 637 mmHg 93%
    20:00 +11°C° 0 mm 1 m/s 637 mmHg 93%
    21:00 +10°C° 0 mm 1 m/s 638 mmHg 94%
    22:00 +10°C° 0 mm 1 m/s 638 mmHg 93%
    23:00 +10°C° 0 mm 1 m/s 637 mmHg 93%
    Mostrar mais